TimePDT,TemperatureF,Dew PointF,Humidity,Sea Level PressureIn,VisibilityMPH,Wind Direction,Wind SpeedMPH,Gust SpeedMPH,PrecipitationIn,Events,Conditions,WindDirDegrees,DateUTC
12:15 AM,28.4,19.4,69,30.03,10.0,Calm,Calm,-,N/A,,Clear,0,2013-09-27 07:15:00
12:35 AM,28.4,21.2,74,30.03,10.0,Calm,Calm,-,N/A,,Clear,0,2013-09-27 07:35:00
12:55 AM,28.4,21.2,74,30.03,10.0,Calm,Calm,-,N/A,,Clear,0,2013-09-27 07:55:00
1:15 AM,28.4,21.2,74,30.04,10.0,Calm,Calm,-,N/A,,Clear,0,2013-09-27 08:15:00
1:35 AM,28.4,21.2,74,30.05,10.0,Calm,Calm,-,N/A,,Clear,0,2013-09-27 08:35:00
1:55 AM,28.4,19.4,69,30.05,10.0,Calm,Calm,-,N/A,,Clear,0,2013-09-27 08:55:00
2:15 AM,28.4,19.4,69,30.05,10.0,Calm,Calm,-,N/A,,Clear,0,2013-09-27 09:15:00
2:35 AM,28.4,19.4,69,30.05,10.0,Calm,Calm,-,N/A,,Clear,0,2013-09-27 09:35:00
2:55 AM,28.4,19.4,69,30.05,10.0,ENE,3.5,-,N/A,,Clear,70,2013-09-27 09:55:00
3:15 AM,28.4,19.4,69,30.05,10.0,Calm,Calm,-,N/A,,Clear,0,2013-09-27 10:15:00
3:35 AM,28.4,19.4,69,30.05,10.0,Calm,Calm,-,N/A,,Clear,0,2013-09-27 10:35:00
3:55 AM,28.4,19.4,69,30.05,10.0,Calm,Calm,-,N/A,,Clear,0,2013-09-27 10:55:00
4:15 AM,28.4,17.6,64,30.05,10.0,Calm,Calm,-,N/A,,Clear,0,2013-09-27 11:15:00
4:35 AM,28.4,17.6,64,30.06,10.0,ENE,5.8,-,N/A,,Clear,60,2013-09-27 11:35:00
4:55 AM,28.4,17.6,64,30.06,10.0,ENE,4.6,-,N/A,,Clear,60,2013-09-27 11:55:00
5:15 AM,28.4,17.6,64,30.07,10.0,Calm,Calm,-,N/A,,Clear,0,2013-09-27 12:15:00
5:35 AM,28.4,17.6,64,30.08,10.0,Calm,Calm,-,N/A,,Clear,0,2013-09-27 12:35:00
5:55 AM,28.4,17.6,64,30.08,10.0,Calm,Calm,-,N/A,,Clear,0,2013-09-27 12:55:00
6:15 AM,28.4,17.6,64,30.09,10.0,Calm,Calm,-,N/A,,Clear,0,2013-09-27 13:15:00
6:35 AM,28.4,17.6,64,30.10,10.0,ENE,3.5,-,N/A,,Clear,60,2013-09-27 13:35:00
6:55 AM,28.4,17.6,64,30.11,10.0,Calm,Calm,-,N/A,,Clear,0,2013-09-27 13:55:00
7:15 AM,30.2,17.6,60,30.12,10.0,East,3.5,-,N/A,,Clear,90,2013-09-27 14:15:00
7:35 AM,30.2,17.6,60,30.13,10.0,Calm,Calm,-,N/A,,Clear,0,2013-09-27 14:35:00
7:55 AM,32.0,19.4,60,30.14,10.0,Calm,Calm,-,N/A,,Clear,0,2013-09-27 14:55:00
8:15 AM,35.6,19.4,52,30.14,10.0,ENE,4.6,-,N/A,,Clear,70,2013-09-27 15:15:00
8:35 AM,41.0,21.2,45,30.15,10.0,ENE,6.9,-,N/A,,Clear,70,2013-09-27 15:35:00
8:55 AM,42.8,19.4,39,30.15,10.0,East,6.9,-,N/A,,Clear,80,2013-09-27 15:55:00
9:15 AM,42.8,17.6,36,30.16,10.0,NNW,5.8,16.1,N/A,,Clear,340,2013-09-27 16:15:00
9:35 AM,42.8,17.6,36,30.16,10.0,North,6.9,-,N/A,,Clear,10,2013-09-27 16:35:00
9:55 AM,44.6,17.6,34,30.17,10.0,NE,5.8,-,N/A,,Clear,40,2013-09-27 16:55:00
10:15 AM,44.6,17.6,34,30.17,10.0,East,9.2,-,N/A,,Clear,80,2013-09-27 17:15:00
10:35 AM,46.4,15.8,29,30.17,10.0,North,5.8,-,N/A,,Clear,10,2013-09-27 17:35:00
10:55 AM,46.4,17.6,32,30.17,10.0,North,9.2,-,N/A,,Clear,360,2013-09-27 17:55:00
11:15 AM,46.4,15.8,29,30.17,10.0,NNE,6.9,-,N/A,,Clear,20,2013-09-27 18:15:00
11:35 AM,48.2,14.0,25,30.17,10.0,North,6.9,-,N/A,,Clear,350,2013-09-27 18:35:00
11:55 AM,50.0,17.6,28,30.17,10.0,NE,3.5,-,N/A,,Clear,40,2013-09-27 18:55:00
12:15 PM,50.0,14.0,24,30.17,10.0,ENE,11.5,-,N/A,,Clear,70,2013-09-27 19:15:00
12:35 PM,51.8,12.2,21,30.17,10.0,East,12.7,17.3,N/A,,Clear,80,2013-09-27 19:35:00
12:55 PM,50.0,10.4,20,30.17,10.0,East,9.2,-,N/A,,Clear,90,2013-09-27 19:55:00
1:15 PM,51.8,10.4,19,30.17,10.0,East,8.1,-,N/A,,Clear,100,2013-09-27 20:15:00
1:35 PM,51.8,12.2,21,30.17,10.0,East,9.2,-,N/A,,Clear,90,2013-09-27 20:35:00
1:55 PM,51.8,12.2,21,30.17,10.0,ESE,9.2,-,N/A,,Clear,110,2013-09-27 20:55:00
2:15 PM,53.6,10.4,18,30.16,10.0,ENE,9.2,-,N/A,,Clear,60,2013-09-27 21:15:00
2:35 PM,53.6,12.2,19,30.16,10.0,ESE,8.1,-,N/A,,Clear,120,2013-09-27 21:35:00
2:55 PM,53.6,10.4,18,30.16,10.0,East,9.2,-,N/A,,Clear,80,2013-09-27 21:55:00
3:15 PM,53.6,12.2,19,30.16,10.0,ENE,8.1,-,N/A,,Clear,70,2013-09-27 22:15:00
3:35 PM,53.6,12.2,19,30.17,10.0,East,11.5,-,N/A,,Clear,80,2013-09-27 22:35:00
3:55 PM,53.6,14.0,21,30.17,10.0,ENE,9.2,-,N/A,,Clear,70,2013-09-27 22:55:00
4:15 PM,53.6,12.2,19,30.17,10.0,NNE,9.2,-,N/A,,Clear,30,2013-09-27 23:15:00
4:35 PM,51.8,12.2,21,30.18,10.0,ENE,10.4,-,N/A,,Clear,70,2013-09-27 23:35:00
4:55 PM,51.8,14.0,22,30.18,10.0,East,10.4,-,N/A,,Clear,80,2013-09-27 23:55:00
5:15 PM,51.8,14.0,22,30.19,10.0,East,10.4,-,N/A,,Clear,80,2013-09-28 00:15:00
5:35 PM,51.8,14.0,22,30.19,10.0,East,8.1,-,N/A,,Clear,80,2013-09-28 00:35:00
5:55 PM,50.0,14.0,24,30.19,10.0,East,5.8,-,N/A,,Clear,100,2013-09-28 00:55:00
6:15 PM,50.0,14.0,24,30.19,10.0,ENE,6.9,-,N/A,,Clear,70,2013-09-28 01:15:00
6:35 PM,48.2,14.0,25,30.20,10.0,NE,4.6,-,N/A,,Clear,50,2013-09-28 01:35:00
6:55 PM,46.4,15.8,29,30.20,10.0,Calm,Calm,-,N/A,,Clear,0,2013-09-28 01:55:00
7:15 PM,42.8,17.6,36,30.21,10.0,Calm,Calm,-,N/A,,Clear,0,2013-09-28 02:15:00
7:35 PM,42.8,15.8,34,30.21,10.0,Calm,Calm,-,N/A,,Clear,0,2013-09-28 02:35:00
7:55 PM,41.0,15.8,36,30.21,10.0,North,3.5,-,N/A,,Clear,10,2013-09-28 02:55:00
8:15 PM,37.4,14.0,38,30.22,10.0,Calm,Calm,-,N/A,,Clear,0,2013-09-28 03:15:00
8:35 PM,35.6,14.0,41,30.23,10.0,Calm,Calm,-,N/A,,Clear,0,2013-09-28 03:35:00
8:55 PM,33.8,14.0,44,30.23,10.0,Calm,Calm,-,N/A,,Clear,0,2013-09-28 03:55:00
9:15 PM,33.8,14.0,44,30.24,7.0,Calm,Calm,-,N/A,,Clear,0,2013-09-28 04:15:00
9:35 PM,33.8,14.0,44,30.24,10.0,Calm,Calm,-,N/A,,Clear,0,2013-09-28 04:35:00
9:55 PM,33.8,12.2,41,30.24,10.0,Calm,Calm,-,N/A,,Clear,0,2013-09-28 04:55:00
10:15 PM,32.0,12.2,44,30.25,10.0,Calm,Calm,-,N/A,,Clear,0,2013-09-28 05:15:00
10:35 PM,32.0,12.2,44,30.25,10.0,Calm,Calm,-,N/A,,Clear,0,2013-09-28 05:35:00
10:55 PM,32.0,12.2,44,30.25,10.0,Calm,Calm,-,N/A,,Clear,0,2013-09-28 05:55:00
11:15 PM,32.0,12.2,44,30.25,10.0,Calm,Calm,-,N/A,,Clear,0,2013-09-28 06:15:00
11:35 PM,32.0,10.4,41,30.25,10.0,Calm,Calm,-,N/A,,Clear,0,2013-09-28 06:35:00
11:55 PM,32.0,10.4,41,30.24,10.0,Calm,Calm,-,N/A,,Clear,0,2013-09-28 06:55:00